Flag for Canada Weather past 2 weeks in Bathurst, New Brunswick, Canada

Now
54 °F

Passing clouds.


Feels Like: 54 °F
Forecast: 54 / 79 °F
Wind: No wind

Location: Bathurst Airport

Current Time: Sep 1, 2015 at 10:01:28 PM

Latest Report: Sep 1, 2015 at 9:00 PM


Visibility: 15 mi

Pressure: 29.98 "Hg

Humidity: 88%

Dew point: 50 °F

Location of BathurstLocation

Historic Weather in Bathurst — Graph

°F

Bathurst temperature yesterday

Maximum temperature yesterday: 77 °F (at 12:00 PM)
Minimum temperature yesterday: 61 °F (at 12:00 AM)
Average temperature yesterday: 69 °F

Past Weeks' High & Low Weather Summary

 TemperatureHumidityPressure
High86 °F (Aug 20, 3:00 PM)100% (Aug 20, 2:00 AM)30.16 "Hg (Aug 20, 2:00 AM)
Low54 °F (Aug 24, 7:00 AM)40% (Sep 1, 3:00 PM)29.53 "Hg (Aug 31, 4:00 PM)
Average69 °F79%29.98 "Hg
* Reported Aug 17 8:00 PM — Sep 1 8:00 PM, Bathurst, Weather by CustomWeather, © 2015

Note: Actual official high and low records may vary slightly from our data, if they occured in-between our weather recording intervals... More about our weather records

Advertising

Bathurst weather history for previous 24 hours

 ConditionsComfort  
Time TempWeatherWind HumidityBarometerVisibility
8:00 PM
Tue, Sep 1
57 °FScattered clouds.No wind77%29.96 "Hg15 mi
7:00 PM63 °FOvercast.2 mph56%29.97 "Hg15 mi
6:00 PM66 °FPartly sunny.8 mph52%29.97 "Hg15 mi
5:00 PM66 °FPartly sunny.8 mph52%29.97 "Hg15 mi
4:00 PM68 °FPartly sunny.3 mph43%29.97 "Hg15 mi
3:00 PM68 °FOvercast.7 mph40%29.98 "Hg15 mi
2:00 PM66 °FOvercast.6 mph49%29.98 "Hg15 mi
1:00 PM64 °FPartly sunny.6 mph52%29.99 "Hg15 mi
12:00 PM64 °FPartly sunny.5 mph49%30.00 "Hg15 mi
11:00 AM63 °FPartly sunny.7 mph52%30.01 "Hg15 mi
10:00 AM61 °FPartly sunny.7 mph59%29.99 "Hg15 mi
9:00 AM59 °FPartly sunny.6 mph63%29.98 "Hg15 mi
8:00 AM55 °FPartly sunny.No wind72%29.96 "Hg15 mi
7:00 AM55 °FPassing clouds.No wind77%29.94 "Hg15 mi
6:00 AM55 °FPassing clouds.5 mph77%29.92 "Hg15 mi
5:00 AM55 °FPassing clouds.6 mph77%29.88 "Hg15 mi
4:00 AM57 °FClear.8 mph72%29.83 "Hg15 mi
3:00 AM59 °FPassing clouds.5 mph68%29.82 "Hg15 mi
2:00 AM59 °FPassing clouds.7 mph72%29.80 "Hg15 mi
1:00 AM61 °FPassing clouds.9 mph68%29.78 "Hg15 mi
12:00 AM63 °FPassing clouds.13 mph68%29.75 "Hg15 mi
11:00 PM
Mon, Aug 31
66 °FPassing clouds.14 mph64%29.71 "Hg15 mi
10:00 PM68 °FOvercast.13 mph64%29.67 "Hg15 mi
Weather by CustomWeather, © 2015

See weather overviewHow to use our weather pages